Flag for Switzerland Weather past 2 weeks in Mendrisio, Ticino, Switzerland

Now
52 °F

Cool.


Feels Like: 52 °F
Forecast: 46 / 50 °F
Wind: 2 mph from Northeast

Location: Stabio

Current Time: Apr 26, 2015 at 2:22:20 AM

Latest Report: Apr 26, 2015 at 1:00 AM


Visibility: N/A

Pressure: 30.01 "Hg

Humidity: 94%

Dew point: 50 °F

Location of MendrisioLocation

Historic Weather in Mendrisio — Graph

°F

Mendrisio temperature yesterday

Maximum temperature yesterday: 60 °F (at 1:00 AM)
Minimum temperature yesterday: 52 °F (at 8:00 PM)
Average temperature yesterday: 55 °F

Past Weeks' High & Low Weather Summary

 TemperatureHumidityPressure
High78 °F (Apr 22, 4:00 PM)100% (Apr 12, 1:00 AM)30.44 "Hg (Apr 12, 1:00 AM)
Low34 °F (Apr 20, 6:00 AM)10% (Apr 14, 6:00 PM)29.85 "Hg (Apr 18, 2:00 PM)
Average56 °F62%30.13 "Hg
* Reported Apr 11 1:00 AM — Apr 26 1:00 AM, Mendrisio, Weather by CustomWeather, © 2015

Note: Actual official high and low records may vary slightly from our data, if they occured in-between our weather recording intervals... More about our weather records

Advertising

Mendrisio weather history for previous 24 hours

 ConditionsComfort  
Time TempWeatherWind HumidityBarometerVisibility
1:00 AM
Sun, Apr 26
52 °FCool.2 mph94%30.01 "HgN/A
12:00 AM52 °FCool.No wind93%30.03 "HgN/A
11:00 PM
Sat, Apr 25
52 °FCool.1 mph97%30.02 "HgN/A
10:00 PM52 °FCool.1 mph98%30.03 "HgN/A
9:00 PM52 °FCool.1 mph96%30.02 "HgN/A
8:00 PM52 °FCool.No wind96%30.02 "HgN/A
7:00 PM52 °FCool.1 mph96%30.02 "HgN/A
6:00 PM53 °FCool.1 mph94%30.03 "HgN/A
5:00 PM54 °FCool.1 mph92%30.02 "HgN/A
4:00 PM55 °FCool.No wind92%30.03 "HgN/A
3:00 PM56 °FCool.No wind81%30.04 "HgN/A
2:00 PM56 °FCool.No wind79%30.05 "HgN/A
1:00 PM56 °FCool.3 mph78%30.06 "HgN/A
12:00 PM56 °FCool.1 mph78%30.07 "HgN/A
11:00 AM55 °FCool.1 mph81%30.07 "HgN/A
10:00 AM55 °FCool.1 mph82%30.06 "HgN/A
9:00 AM53 °FCool.No wind89%30.06 "HgN/A
8:00 AM52 °FCool.No wind87%30.06 "HgN/A
7:00 AM53 °FCool.No wind87%30.06 "HgN/A
6:00 AM54 °FCool.2 mph74%30.04 "HgN/A
5:00 AM54 °FCool.1 mph74%30.04 "HgN/A
4:00 AM53 °FCool.2 mph73%30.04 "HgN/A
3:00 AM57 °FCool.2 mph63%30.03 "HgN/A
2:00 AM59 °FCool.2 mph63%30.04 "HgN/A
Weather by CustomWeather, © 2015

See weather overviewHow to use our weather pages